Location: St. Louis
(38.6270°N, 90.1994°W)
Time: 10:43:59
(UTC-06:00)

Altair - Pass Details

Date: 04 December 2021
Orbit: 1501 x 1683 km, 47.2° (Epoch: 25 January)

Event Time Altitude Azimuth Distance (km) Brightness Sun altitude
Rises 17:14:02 0° 267° (W) 4,757 11.6 -6.9°
Reaches altitude 10° 17:17:17 10° 273° (W) 3,748 10.7 -7.5°
Maximum altitude 17:26:29 54° 349° (N) 1,807 7.8 -9.2°
Enters shadow 17:34:49 12° 64° (ENE) 3,464 8.7 -10.7°
Drops below altitude 10° 17:35:27 10° 65° (ENE) 3,658 - -10.8°
Sets 17:38:35 0° 71° (ENE) 4,635 - -11.4°
